FW0954 Weather Reports


time (UTC)temp
F
wind
direction
speed
knots
gust
knots
rain 1hr
in
rain 24hr
in
rain mn
in
humidity
%
barometer
mb
20220627214504 94 62 0.9 2.6 0.00 0.00 0.00 55 1019.1
20220627214003 95 57 0.9 2.6 0.00 0.00 0.00 53 1019.1
20220627213503 96 38 0.0 1.7 0.00 0.00 0.00 54 1019.2
20220627213004 95 27 0.0 1.7 0.00 0.00 0.00 54 1019.3
20220627212504 95 75 0.9 3.5 0.00 0.00 0.00 55 1019.3
20220627212003 95 87 0.9 3.5 0.00 0.00 0.00 55 1019.5
20220627211504 95 91 0.0 1.7 0.00 0.00 0.00 55 1019.5
20220627211003 95 99 0.0 2.6 0.00 0.00 0.00 55 1019.7
20220627210503 95 94 0.0 2.6 0.00 0.00 0.00 58 1019.7
20220627210004 94 68 0.9 3.5 0.00 0.00 0.00 57 1019.9
20220627205503 94 61 0.9 3.5 0.00 0.00 0.00 57 1019.9
20220627205003 95 75 0.0 2.6 0.00 0.00 0.00 56 1019.9
20220627204504 95 77 0.9 2.6 0.00 0.00 0.00 55 1019.9
20220627204004 95 80 0.9 2.6 0.00 0.00 0.00 56 1019.9
20220627203503 95 70 0.9 3.5 0.00 0.00 0.00 56 1020.0
20220627203004 95 67 0.9 3.5 0.00 0.00 0.00 55 1020.0
20220627202504 95 85 0.9 2.6 0.00 0.00 0.00 56 1020.0
20220627202003 95 70 0.9 2.6 0.00 0.00 0.00 56 1020.1
20220627201504 95 53 0.9 2.6 0.00 0.00 0.00 56 1020.0
20220627201003 95 51 0.9 2.6 0.00 0.00 0.00 57 1020.0
20220627200503 95 55 0.9 4.3 0.00 0.00 0.00 56 1020.2
20220627200004 95 54 0.9 4.3 0.00 0.00 0.00 56 1020.2
20220627195503 94 79 0.0 2.6 0.00 0.00 0.00 57 1020.1
20220627195003 94 83 0.9 2.6 0.00 0.00 0.00 57 1020.2
20220627194504 94 69 0.9 2.6 0.00 0.00 0.00 56 1020.3
20220627194003 94 65 0.9 1.7 0.00 0.00 0.00 56 1020.3
20220627193503 95 80 0.9 1.7 0.00 0.00 0.00 56 1020.3
20220627193004 95 59 0.9 1.7 0.00 0.00 0.00 56 1020.5
20220627192503 95 23 0.0 1.7 0.00 0.00 0.00 55 1020.5
20220627192003 96 92 0.0 1.7 0.00 0.00 0.00 57 1020.5
20220627191503 95 67 0.0 1.7 0.00 0.00 0.00 57 1020.5
20220627191004 95 79 0.9 2.6 0.00 0.00 0.00 58 1020.6
20220627190503 94 102 0.0 2.6 0.00 0.00 0.00 58 1020.7
20220627190003 94 74 0.0 0.9 0.00 0.00 0.00 58 1020.8
20220627185504 95 58 0.0 0.9 0.00 0.00 0.00 57 1020.9
20220627185004 95 14 0.0 2.6 0.00 0.00 0.00 58 1020.9
20220627184503 95 5 0.0 2.6 0.00 0.00 0.00 58 1021.1
20220627184004 94 88 0.0 1.7 0.00 0.00 0.00 57 1021.1
20220627183503 94 89 0.0 1.7 0.00 0.00 0.00 58 1021.1
20220627183003 93 332 0.0 1.7 0.00 0.00 0.00 59 1021.1
20220627182504 93 313 0.0 1.7 0.00 0.00 0.00 57 1021.2
20220627182003 94 201 0.0 0.9 0.00 0.00 0.00 57 1021.4
20220627181503 94 182 0.0 0.9 0.00 0.00 0.00 57 1021.5
20220627181004 94 90 0.0 2.6 0.00 0.00 0.00 59 1021.5
20220627180503 94 116 0.0 2.6 0.00 0.00 0.00 58 1021.5
20220627180003 93 138 0.0 2.6 0.00 0.00 0.00 58 1021.5
20220627175503 93 118 0.0 2.6 0.00 0.00 0.00 58 1021.6
20220627175004 93 119 0.0 2.6 0.00 0.00 0.00 59 1021.6
20220627174503 93 111 0.0 1.7 0.00 0.00 0.00 61 1021.7
20220627174003 93 104 0.0 1.7 0.00 0.00 0.00 60 1021.8
20220627173504 93 74 0.0 1.7 0.00 0.00 0.00 59 1021.7
20220627173003 93 60 0.0 1.7 0.00 0.00 0.00 60 1021.9
20220627172503 92 157 0.0 1.7 0.00 0.00 0.00 59 1021.9
20220627172004 93 150 0.0 1.7 0.00 0.00 0.00 59 1021.9
20220627171503 92 147 0.0 1.7 0.00 0.00 0.00 60 1021.9
20220627171004 92 0 0.0 0.0 0.00 0.00 0.00 60 1022.0
20220627170503 91 95 0.0 0.9 0.00 0.00 0.00 61 1021.9
20220627170003 90 305 0.0 3.5 0.00 0.00 0.00 62 1021.9
20220627165504 90 239 0.0 3.5 0.00 0.00 0.00 61 1022.0
20220627165004 90 133 0.0 2.6 0.00 0.00 0.00 62 1022.1
20220627164503 90 30 0.0 0.9 0.00 0.00 0.00 61 1022.1
20220627164004 90 199 0.0 0.9 0.00 0.00 0.00 62 1022.1
20220627163504 89 230 0.0 1.7 0.00 0.00 0.00 62 1022.1
20220627163003 89 118 0.0 2.6 0.00 0.00 0.00 62 1022.1
20220627162504 89 107 0.9 2.6 0.00 0.00 0.00 62 1022.0
20220627162003 88 103 0.0 1.7 0.00 0.00 0.00 62 1022.1
20220627161503 89 115 0.0 1.7 0.00 0.00 0.00 62 1022.0
20220627161003 88 108 0.0 1.7 0.00 0.00 0.00 63 1022.1
20220627160504 88 115 0.0 1.7 0.00 0.00 0.00 61 1022.1
20220627160003 88 130 0.0 3.5 0.00 0.00 0.00 62 1022.1
20220627155503 87 100 0.9 3.5 0.00 0.00 0.00 63 1022.1
20220627155004 87 28 0.9 2.6 0.00 0.00 0.00 63 1022.2
20220627154503 87 69 0.9 3.5 0.00 0.00 0.00 62 1022.1
20220627154003 87 87 0.9 3.5 0.00 0.00 0.00 62 1022.2
20220627153504 87 97 0.0 2.6 0.00 0.00 0.00 62 1022.2
20220627153003 86 104 0.0 2.6 0.00 0.00 0.00 63 1022.2
20220627152503 86 108 0.0 1.7 0.00 0.00 0.00 64 1022.2
20220627152005 86 95 0.0 1.7 0.00 0.00 0.00 65 1022.1
20220627151504 85 98 0.0 1.7 0.00 0.00 0.00 65 1022.1
20220627151005 84 100 0.0 0.9 0.00 0.00 0.00 65 1022.1
20220627150505 84 75 0.0 0.9 0.00 0.00 0.00 64 1022.1
20220627150004 84 107 0.0 1.7 0.00 0.00 0.00 65 1022.2
20220627145504 83 115 0.0 1.7 0.00 0.00 0.00 67 1022.2
20220627145005 82 90 0.0 1.7 0.00 0.00 0.00 68 1022.2
20220627144505 81 90 0.0 1.7 0.00 0.00 0.00 68 1022.2
20220627144005 81 75 0.0 2.6 0.00 0.00 0.00 68 1022.3
20220627143505 81 63 0.0 2.6 0.00 0.00 0.00 68 1022.3
20220627143004 80 155 0.0 0.9 0.00 0.00 0.00 69 1022.3
20220627142504 80 104 0.0 1.7 0.00 0.00 0.00 69 1022.3
20220627142005 79 86 0.0 1.7 0.00 0.00 0.00 70 1022.3
20220627141505 78 56 0.0 2.6 0.00 0.00 0.00 70 1022.3
20220627141004 78 75 0.0 2.6 0.00 0.00 0.00 70 1022.2
20220627140504 78 43 0.0 2.6 0.00 0.00 0.00 69 1022.1
20220627140005 78 33 0.0 2.6 0.00 0.00 0.00 68 1022.2
20220627135504 78 35 0.0 2.6 0.00 0.00 0.00 68 1022.2
20220627135004 78 36 0.0 2.6 0.00 0.00 0.00 69 1022.1
20220627134505 77 0 0.0 0.0 0.00 0.00 0.00 69 1022.1
20220627134005 77 0 0.0 0.0 0.00 0.00 0.00 70 1022.1
20220627133504 77 0 0.0 0.0 0.00 0.00 0.00 70 1022.1
20220627133005 76 48 0.0 0.9 0.00 0.00 0.00 69 1022.1
20220627132505 76 59 0.0 3.5 0.00 0.00 0.00 69 1022.1
20220627132005 76 99 0.0 3.5 0.00 0.00 0.00 70 1022.1
20220627131504 76 0 0.0 0.0 0.00 0.00 0.00 69 1022.0
20220627131005 76 0 0.0 0.0 0.00 0.00 0.00 69 1022.0
20220627130505 76 12 0.0 2.6 0.00 0.00 0.00 69 1022.0
20220627130004 75 37 0.0 2.6 0.00 0.00 0.00 69 1021.8
20220627125505 75 44 0.0 1.7 0.00 0.00 0.00 69 1021.8
20220627125004 75 80 0.0 0.9 0.00 0.00 0.00 70 1021.8
20220627124504 75 95 0.0 1.7 0.00 0.00 0.00 70 1021.8
20220627124005 74 71 0.0 2.6 0.00 0.00 0.00 70 1021.8
20220627123504 74 52 0.9 2.6 0.00 0.00 0.00 70 1021.6
20220627123004 74 60 0.9 3.5 0.00 0.00 0.00 70 1021.5
20220627122505 74 64 0.0 3.5 0.00 0.00 0.00 69 1021.5
20220627122004 74 70 0.0 2.6 0.00 0.00 0.00 70 1021.5
20220627121504 74 80 0.0 1.7 0.00 0.00 0.00 69 1021.3
20220627121005 74 63 0.9 3.5 0.00 0.00 0.00 69 1021.2
20220627120504 74 59 0.9 3.5 0.00 0.00 0.00 69 1021.2
20220627120004 74 61 0.9 3.5 0.00 0.00 0.00 69 1021.1
20220627115505 74 59 0.0 3.5 0.00 0.00 0.00 68 1021.1
20220627115005 74 48 0.0 2.6 0.00 0.00 0.00 69 1021.1
20220627114504 74 52 0.9 2.6 0.00 0.00 0.00 69 1021.1
20220627114005 74 51 0.9 2.6 0.00 0.00 0.00 68 1021.1
20220627113504 74 47 0.0 2.6 0.00 0.00 0.00 68 1021.1
20220627113004 74 0 0.0 0.0 0.00 0.00 0.00 68 1021.0
20220627112505 74 98 0.0 2.6 0.00 0.00 0.00 68 1021.0
20220627112004 74 60 0.0 2.6 0.00 0.00 0.00 69 1020.9
20220627111505 74 53 0.9 3.5 0.00 0.00 0.00 68 1021.0
20220627111005 74 61 0.0 3.5 0.00 0.00 0.00 69 1020.9
20220627110504 74 64 0.0 1.7 0.00 0.00 0.00 69 1020.9
20220627110004 74 89 0.0 1.7 0.00 0.00 0.00 69 1021.0
20220627105505 75 86 0.0 2.6 0.00 0.00 0.00 68 1020.9
20220627105005 75 86 0.0 2.6 0.00 0.00 0.00 68 1020.8
20220627104505 75 84 0.0 1.7 0.00 0.00 0.00 68 1020.8
20220627104004 75 128 0.0 0.9 0.00 0.00 0.00 68 1020.7
20220627103505 75 72 0.0 1.7 0.00 0.00 0.00 68 1020.7
20220627103005 75 60 0.0 1.7 0.00 0.00 0.00 68 1020.7
20220627102504 75 78 0.0 2.6 0.00 0.00 0.00 69 1020.7
20220627102004 75 69 0.0 2.6 0.00 0.00 0.00 68 1020.6
20220627101505 75 65 0.0 1.7 0.00 0.00 0.00 68 1020.6
20220627101004 75 62 0.0 1.7 0.00 0.00 0.00 67 1020.7
20220627100504 75 67 0.9 3.5 0.00 0.00 0.00 67 1020.6
20220627100005 75 60 0.9 3.5 0.00 0.00 0.00 66 1020.7
20220627095506 75 46 0.0 2.6 0.00 0.00 0.00 66 1020.7
20220627095004 76 56 0.0 2.6 0.00 0.00 0.00 66 1020.7
20220627094505 76 51 0.9 2.6 0.00 0.00 0.00 66 1020.7
20220627094005 76 52 0.9 3.5 0.00 0.00 0.00 66 1020.7
20220627093504 76 66 0.9 3.5 0.00 0.00 0.00 66 1020.6
20220627093005 76 54 0.9 3.5 0.00 0.00 0.00 66 1020.6
20220627092505 76 53 0.9 3.5 0.00 0.00 0.00 65 1020.7
20220627092004 76 55 0.9 3.5 0.00 0.00 0.00 65 1020.7
20220627091505 76 60 0.9 4.3 0.00 0.00 0.00 66 1020.7
20220627091004 76 64 0.0 4.3 0.00 0.00 0.00 66 1020.5
20220627090504 76 285 0.0 0.9 0.00 0.00 0.00 66 1020.6
20220627090005 76 37 0.0 1.7 0.00 0.00 0.00 66 1020.5
20220627085504 77 44 0.9 1.7 0.00 0.00 0.00 66 1020.6
20220627085004 77 44 0.0 1.7 0.00 0.00 0.00 65 1020.5
20220627084505 77 30 0.0 1.7 0.00 0.00 0.00 65 1020.5
20220627084005 77 55 0.0 1.7 0.00 0.00 0.00 65 1020.6
20220627083504 77 41 0.0 3.5 0.00 0.00 0.00 66 1020.6
20220627083004 77 35 0.9 3.5 0.00 0.00 0.00 66 1020.5
20220627082505 78 35 0.0 3.5 0.00 0.00 0.00 67 1020.5
20220627082004 78 39 0.0 1.7 0.00 0.00 0.00 68 1020.4
20220627081504 78 39 0.0 2.6 0.00 0.00 0.00 68 1020.3
20220627081005 78 37 0.9 2.6 0.00 0.00 0.00 69 1020.4
20220627080504 78 36 0.0 1.7 0.00 0.00 0.00 70 1020.4
20220627080004 79 52 0.9 2.6 0.00 0.00 0.00 71 1020.3
20220627075505 79 53 0.9 2.6 0.00 0.00 0.00 71 1020.3
20220627075005 79 55 0.0 1.7 0.00 0.00 0.00 72 1020.3
20220627074504 79 52 0.0 1.7 0.00 0.00 0.00 73 1020.3
20220627074004 80 60 0.0 1.7 0.00 0.00 0.00 73 1020.3
20220627073505 80 60 0.0 1.7 0.00 0.00 0.00 73 1020.1
20220627073004 80 38 0.0 2.6 0.00 0.00 0.00 74 1020.2
20220627072504 80 38 0.0 2.6 0.00 0.00 0.00 73 1020.2
20220627072005 80 0 0.0 0.0 0.00 0.00 0.00 74 1020.3
20220627071505 80 61 0.0 1.7 0.00 0.00 0.00 74 1020.4
20220627071005 81 68 0.0 1.7 0.00 0.00 0.00 74 1020.4
20220627070504 81 75 0.0 1.7 0.00 0.00 0.00 74 1020.3
20220627070005 81 84 0.0 2.6 0.00 0.00 0.00 74 1020.3
20220627065505 81 52 0.0 2.6 0.00 0.00 0.00 73 1020.4
20220627065004 81 34 0.0 2.6 0.00 0.00 0.00 73 1020.4
20220627064505 81 63 0.0 1.7 0.00 0.00 0.00 73 1020.3
20220627064005 81 63 0.0 1.7 0.00 0.00 0.00 73 1020.4
20220627063505 81 0 0.0 0.0 0.00 0.00 0.00 73 1020.3
20220627063005 81 52 0.0 1.7 0.00 0.00 0.00 73 1020.3
20220627062504 81 42 0.0 2.6 0.00 0.00 0.00 72 1020.4
20220627062005 82 35 0.0 2.6 0.00 0.00 0.00 72 1020.4
20220627061505 82 113 0.0 0.9 0.00 0.00 0.00 72 1020.4
20220627061004 82 129 0.0 0.9 0.00 0.00 0.00 72 1020.3
20220627060505 82 116 0.0 1.7 0.00 0.00 0.00 72 1020.4
20220627060005 82 106 0.0 1.7 0.00 0.00 0.00 71 1020.4
20220627055504 82 70 0.0 1.7 0.00 0.00 0.00 71 1020.5
20220627055005 82 46 0.0 1.7 0.00 0.00 0.00 71 1020.4
20220627054504 82 52 0.0 3.5 0.00 0.00 0.00 70 1020.3
20220627054004 82 69 0.0 3.5 0.00 0.00 0.00 70 1020.3
20220627053505 82 65 0.0 3.5 0.00 0.00 0.00 70 1020.3
20220627053004 83 58 0.9 3.5 0.00 0.00 0.00 70 1020.3
20220627052504 83 61 0.9 3.5 0.00 0.00 0.00 70 1020.3
20220627052005 83 58 0.9 3.5 0.00 0.00 0.00 69 1020.3
20220627051505 83 54 0.9 3.5 0.00 0.00 0.00 69 1020.2
20220627051004 83 62 0.9 3.5 0.00 0.00 0.00 69 1020.2
20220627050505 83 68 1.7 3.5 0.00 0.00 0.00 68 1020.2
20220627050006 83 60 0.9 4.3 0.00 0.00 0.00 68 1020.3
20220627045504 84 55 0.9 4.3 0.00 0.00 0.00 68 1020.2
20220627045004 84 56 0.9 3.5 0.00 0.00 0.00 68 1020.2
20220627044504 84 56 0.9 3.5 0.00 0.00 0.00 69 1020.2
20220627044005 84 64 0.9 3.5 0.00 0.00 0.00 68 1020.1
20220627043504 84 56 1.7 3.5 0.00 0.00 0.00 68 1020.1
20220627043004 84 49 1.7 3.5 0.00 0.00 0.00 67 1020.0
20220627042505 84 52 1.7 3.5 0.00 0.00 0.00 67 1019.9
20220627042005 85 51 1.7 3.5 0.00 0.00 0.00 67 1020.0
20220627041504 85 49 1.7 5.2 0.00 0.00 0.00 67 1019.9
20220627041005 85 50 1.7 6.1 0.00 0.00 0.00 67 1019.8
20220627040505 85 49 1.7 6.1 0.00 0.00 0.00 67 1019.7
20220627040004 85 50 1.7 4.3 0.00 0.00 0.00 68 1019.6
20220627035505 86 50 0.9 5.2 0.00 0.00 0.00 69 1019.6
20220627035005 86 52 0.9 5.2 0.00 0.00 0.00 69 1019.4
20220627034504 86 70 0.0 2.6 0.00 0.00 0.00 70 1019.3
20220627034004 86 68 0.9 2.6 0.00 0.00 0.00 69 1019.3
20220627033505 86 68 0.9 3.5 0.00 0.00 0.00 68 1019.4
20220627033004 86 54 1.7 4.3 0.00 0.00 0.00 68 1019.4
20220627032505 87 52 0.9 5.2 0.00 0.00 0.00 68 1019.3
20220627032005 87 56 0.9 5.2 0.00 0.00 0.00 70 1019.3
20220627031504 87 54 0.9 5.2 0.00 0.00 0.00 69 1019.3
20220627031005 87 41 0.9 4.3 0.00 0.00 0.00 69 1019.1
20220627030504 87 41 1.7 5.2 0.00 0.00 0.00 69 1018.9
20220627030005 88 56 1.7 5.2 0.00 0.00 0.00 69 1018.9
20220627025505 88 54 0.9 5.2 0.00 0.00 0.00 68 1018.9
20220627025004 88 52 0.9 3.5 0.00 0.00 0.00 68 1018.9
20220627024505 88 44 0.0 3.5 0.00 0.00 0.00 68 1018.8
20220627024005 88 51 0.9 3.5 0.00 0.00 0.00 67 1018.7
20220627023504 89 56 0.9 3.5 0.00 0.00 0.00 67 1018.7
20220627023005 89 53 1.7 4.3 0.00 0.00 0.00 67 1018.7
20220627022505 90 50 1.7 5.2 0.00 0.00 0.00 67 1018.7
20220627022005 90 52 0.9 5.2 0.00 0.00 0.00 66 1018.5
20220627021504 90 51 0.9 5.2 0.00 0.00 0.00 66 1018.5
20220627021005 90 44 0.9 5.2 0.00 0.00 0.00 66 1018.4
20220627020505 91 46 1.7 3.5 0.00 0.00 0.00 65 1018.4
20220627020005 91 47 1.7 3.5 0.00 0.00 0.00 64 1018.2
20220627015504 91 49 0.9 3.5 0.00 0.00 0.00 64 1017.9
20220627015005 92 62 0.9 4.3 0.00 0.00 0.00 63 1017.9
20220627014505 92 56 0.9 4.3 0.00 0.00 0.00 62 1017.7
20220627014005 92 56 0.9 2.6 0.00 0.00 0.00 62 1017.6
20220627013505 92 62 0.9 2.6 0.00 0.00 0.00 61 1017.5
20220627013005 92 67 0.9 1.7 0.00 0.00 0.00 61 1017.4
20220627012505 92 57 0.9 4.3 0.00 0.00 0.00 60 1017.1
20220627012004 93 52 0.9 4.3 0.00 0.00 0.00 59 1017.0
20220627011504 93 57 0.9 3.5 0.00 0.00 0.00 59 1016.9
20220627011005 93 54 0.9 2.6 0.00 0.00 0.00 58 1016.9
20220627010504 94 52 0.9 2.6 0.00 0.00 0.00 57 1016.9
20220627010004 94 59 0.9 2.6 0.00 0.00 0.00 56 1016.8
20220627005505 94 61 0.0 2.6 0.00 0.00 0.00 56 1016.7
20220627005005 94 51 0.0 2.6 0.00 0.00 0.00 55 1016.7
20220627004504 94 65 0.0 1.7 0.00 0.00 0.00 55 1016.8
20220627004004 95 57 0.9 3.5 0.00 0.00 0.00 54 1016.8
20220627003505 95 44 0.0 3.5 0.00 0.00 0.00 55 1016.6
20220627003004 96 49 0.0 3.5 0.00 0.00 0.00 54 1016.6
20220627002504 96 43 0.0 3.5 0.00 0.00 0.00 53 1016.7
20220627002004 97 17 0.0 1.7 0.00 0.00 0.00 52 1016.6
20220627001505 98 0 0.0 0.0 0.00 0.00 0.00 50 1016.6
20220627001005 99 50 0.9 1.7 0.00 0.00 0.00 47 1016.5
20220627000504 100 52 0.0 1.7 0.00 0.00 0.00 45 1016.4
20220627000005 101 76 0.0 0.9 0.00 0.00 0.00 41 1016.4
20220626235504 101 41 0.0 1.7 0.00 0.00 0.00 38 1016.3
20220626235004 101 33 0.0 1.7 0.00 0.00 0.00 37 1016.2
20220626234504 102 61 0.0 2.6 0.00 0.00 0.00 36 1016.2
20220626234004 102 48 0.0 2.6 0.00 0.00 0.00 36 1016.2
20220626233505 102 299 0.0 1.7 0.00 0.00 0.00 37 1016.2
20220626233004 102 305 0.0 1.7 0.00 0.00 0.00 36 1016.2
20220626232505 102 21 0.0 1.7 0.00 0.00 0.00 37 1016.2
20220626232005 102 24 0.0 1.7 0.00 0.00 0.00 37 1016.2
20220626231504 103 55 0.0 1.7 0.00 0.00 0.00 36 1016.1
20220626231004 103 28 0.0 1.7 0.00 0.00 0.00 36 1016.1
20220626230505 104 316 0.0 1.7 0.00 0.00 0.00 34 1016.0
20220626230004 104 346 0.0 1.7 0.00 0.00 0.00 35 1016.1
20220626225504 104 90 0.0 0.9 0.00 0.00 0.00 34 1016.1
20220626225005 104 103 0.0 0.9 0.00 0.00 0.00 34 1016.1
20220626224504 104 96 0.0 0.9 0.00 0.00 0.00 36 1016.2
20220626224004 104 93 0.0 0.9 0.00 0.00 0.00 36 1016.3
20220626223505 104 0 0.0 0.0 0.00 0.00 0.00 34 1016.3
20220626223004 104 72 0.0 1.7 0.00 0.00 0.00 36 1016.4
20220626222504 104 105 0.0 1.7 0.00 0.00 0.00 34 1016.4
20220626222005 104 175 0.0 1.7 0.00 0.00 0.00 35 1016.4
20220626221505 105 213 0.0 0.9 0.00 0.00 0.00 36 1016.5
20220626221005 105 100 0.0 0.9 0.00 0.00 0.00 35 1016.5
20220626220505 105 122 0.0 4.3 0.00 0.00 0.00 35 1016.5
20220626220004 105 124 0.0 4.3 0.00 0.00 0.00 33 1016.6
20220626215504 105 104 0.0 0.9 0.00 0.00 0.00 32 1016.6
20220626215006 104 60 0.0 0.9 0.00 0.00 0.00 32 1016.7